NSZ3DA ENTC-ENBR

Flight info

Callsign NSZ3DA
Flight time N/A
Altitude 34000
Route AMIMO DCT LUNUR
Aircraft B738/M-SDE2E3FGHIRWXY/LB1

Departure

Time N/A
Airport Tromsø Airport (ENTC)

Arrival

Time 2026-04-27 18:48
Airport Bergen Airport, Flesland (ENBR)
Time Latitude Longitude Altitude Speed Heading
2026-04-27 17:20 68.58396 16.86503 32644 ft 475 kts 196°
2026-04-27 17:21 68.55169 16.84576 32986 ft 474 kts 196°
2026-04-27 17:21 68.51955 16.82624 33313 ft 473 kts 197°
2026-04-27 17:21 68.48750 16.80662 33610 ft 472 kts 197°
2026-04-27 17:21 68.45540 16.78694 33871 ft 473 kts 196°
2026-04-27 17:22 68.42327 16.76726 34135 ft 473 kts 196°
2026-04-27 17:22 68.39115 16.74768 34393 ft 473 kts 196°
2026-04-27 17:22 68.32649 16.70845 34361 ft 476 kts 196°
2026-04-27 17:23 68.26215 16.66979 34359 ft 472 kts 196°
2026-04-27 17:23 68.19817 16.63154 34363 ft 470 kts 196°
2026-04-27 17:24 68.13441 16.59358 34348 ft 469 kts 196°
2026-04-27 17:24 68.07065 16.55585 34359 ft 470 kts 196°
2026-04-27 17:25 68.00677 16.51826 34384 ft 470 kts 196°
2026-04-27 17:25 67.94282 16.48083 34369 ft 471 kts 196°
2026-04-27 17:26 67.87906 16.43981 34342 ft 469 kts 207°
2026-04-27 17:26 67.85111 16.39829 34380 ft 456 kts 222°
2026-04-27 17:26 67.82574 16.34773 34364 ft 457 kts 223°
2026-04-27 17:27 67.77544 16.24440 34363 ft 459 kts 224°
2026-04-27 17:27 67.72475 16.14130 34369 ft 461 kts 223°
2026-04-27 17:28 67.67348 16.03898 34349 ft 463 kts 223°
2026-04-27 17:29 67.59608 15.88670 34373 ft 464 kts 223°
2026-04-27 17:29 67.54427 15.78554 34374 ft 465 kts 223°
2026-04-27 17:30 67.49265 15.68527 34360 ft 465 kts 222°
2026-04-27 17:30 67.44076 15.58504 34192 ft 464 kts 222°
2026-04-27 17:30 67.41478 15.53507 34262 ft 463 kts 222°
2026-04-27 17:31 67.36301 15.43587 34373 ft 462 kts 222°
2026-04-27 17:31 67.31113 15.33696 34382 ft 464 kts 222°
2026-04-27 17:32 67.23284 15.18873 34390 ft 466 kts 222°
2026-04-27 17:33 67.18029 15.08995 34403 ft 468 kts 221°
2026-04-27 17:33 67.12752 14.99131 34396 ft 469 kts 221°
2026-04-27 17:34 67.07459 14.89293 34396 ft 470 kts 221°
2026-04-27 17:34 67.02161 14.79501 34397 ft 470 kts 221°
2026-04-27 17:35 66.96860 14.69755 34401 ft 469 kts 221°
2026-04-27 17:35 66.91563 14.60070 34395 ft 468 kts 221°
2026-04-27 17:36 66.86288 14.50477 34408 ft 466 kts 221°
2026-04-27 17:36 66.81015 14.40938 34403 ft 464 kts 221°
2026-04-27 17:37 66.75795 14.31545 34411 ft 463 kts 221°
2026-04-27 17:37 66.70535 14.22131 34409 ft 463 kts 221°
2026-04-27 17:38 66.65276 14.12768 34400 ft 462 kts 221°
2026-04-27 17:38 66.60026 14.03472 34431 ft 461 kts 221°
2026-04-27 17:39 66.54760 13.94194 34406 ft 463 kts 221°
2026-04-27 17:39 66.49481 13.84944 34405 ft 462 kts 221°
2026-04-27 17:40 66.44204 13.75746 34399 ft 462 kts 221°
2026-04-27 17:40 66.38924 13.66591 34409 ft 462 kts 221°
2026-04-27 17:41 66.33636 13.57470 34411 ft 462 kts 221°
2026-04-27 17:41 66.28340 13.48383 34422 ft 463 kts 221°
2026-04-27 17:42 66.23031 13.39321 34403 ft 462 kts 221°
2026-04-27 17:42 66.18626 13.31839 34408 ft 462 kts 220°
2026-04-27 17:43 66.12458 13.21413 34425 ft 463 kts 220°
2026-04-27 17:43 66.07126 13.12449 34422 ft 464 kts 220°
2026-04-27 17:44 66.02654 13.04971 34436 ft 464 kts 220°
2026-04-27 17:44 65.97307 12.96069 34422 ft 464 kts 220°
2026-04-27 17:45 65.92005 12.87291 34445 ft 463 kts 220°
2026-04-27 17:45 65.86665 12.78490 34440 ft 463 kts 220°
2026-04-27 17:46 65.81313 12.69714 34441 ft 464 kts 220°
2026-04-27 17:46 65.75956 12.60976 34440 ft 463 kts 220°
2026-04-27 17:47 65.70597 12.52280 34444 ft 463 kts 220°
2026-04-27 17:47 65.65240 12.43630 34444 ft 463 kts 220°
2026-04-27 17:48 65.59872 12.35005 34445 ft 463 kts 220°
2026-04-27 17:48 65.54508 12.26432 34452 ft 462 kts 220°
2026-04-27 17:49 65.49182 12.17963 34447 ft 461 kts 219°
2026-04-27 17:49 65.43826 12.09486 34450 ft 460 kts 219°
2026-04-27 17:50 65.38473 12.01057 34446 ft 460 kts 219°
2026-04-27 17:50 65.30443 11.88487 34447 ft 459 kts 219°
2026-04-27 17:51 65.25090 11.80161 34446 ft 459 kts 219°
2026-04-27 17:51 65.19729 11.71863 34446 ft 459 kts 219°
2026-04-27 17:52 65.14362 11.63596 34455 ft 460 kts 219°
2026-04-27 17:52 65.08980 11.55345 34461 ft 461 kts 219°
2026-04-27 17:53 65.03588 11.47121 34458 ft 461 kts 219°
2026-04-27 17:53 64.98182 11.38915 34452 ft 462 kts 219°
2026-04-27 17:54 64.92768 11.30739 34456 ft 462 kts 219°
2026-04-27 17:54 64.87377 11.22635 34452 ft 463 kts 219°
2026-04-27 17:55 64.81940 11.14503 34451 ft 463 kts 219°
2026-04-27 17:55 64.76498 11.06401 34453 ft 463 kts 219°
2026-04-27 17:56 64.71054 10.98337 34454 ft 463 kts 219°
2026-04-27 17:56 64.65604 10.90303 34459 ft 463 kts 219°
2026-04-27 17:57 64.60151 10.82301 34456 ft 463 kts 219°
2026-04-27 17:57 64.54703 10.74347 34465 ft 462 kts 218°
2026-04-27 17:58 64.49247 10.66418 34466 ft 462 kts 218°
2026-04-27 17:58 64.43793 10.58530 34456 ft 462 kts 218°
2026-04-27 17:59 64.38341 10.50681 34457 ft 462 kts 218°
2026-04-27 17:59 64.32887 10.42867 34473 ft 461 kts 218°
2026-04-27 18:00 64.27428 10.35084 34471 ft 461 kts 218°
2026-04-27 18:00 64.21964 10.27328 34473 ft 462 kts 218°
2026-04-27 18:01 64.16496 10.19603 34473 ft 462 kts 218°
2026-04-27 18:01 64.11019 10.11903 34475 ft 462 kts 218°
2026-04-27 18:02 64.05530 10.04222 34473 ft 463 kts 218°
2026-04-27 18:02 64.00032 9.96564 34470 ft 463 kts 218°
2026-04-27 18:03 63.94531 9.88938 34475 ft 463 kts 218°
2026-04-27 18:03 63.89060 9.81388 34478 ft 463 kts 218°
2026-04-27 18:04 63.83553 9.73823 34481 ft 463 kts 218°
2026-04-27 18:04 63.78039 9.66284 34467 ft 463 kts 218°
2026-04-27 18:05 63.72521 9.58776 34482 ft 463 kts 218°
2026-04-27 18:05 63.67003 9.51300 34478 ft 463 kts 217°
2026-04-27 18:06 63.61473 9.43842 34479 ft 463 kts 217°
2026-04-27 18:06 63.55946 9.36424 34476 ft 463 kts 217°
2026-04-27 18:07 63.50413 9.29030 34484 ft 463 kts 217°
2026-04-27 18:07 63.44868 9.21655 34466 ft 464 kts 217°
2026-04-27 18:08 63.39324 9.14314 34461 ft 463 kts 217°
2026-04-27 18:08 63.33774 9.07001 34467 ft 462 kts 217°
2026-04-27 18:09 63.28244 8.99745 34459 ft 461 kts 217°
2026-04-27 18:09 63.22710 8.92517 34461 ft 461 kts 217°
2026-04-27 18:10 63.17217 8.85374 34468 ft 460 kts 216°
2026-04-27 18:10 63.11691 8.78220 34465 ft 460 kts 216°
2026-04-27 18:11 63.06153 8.71081 34452 ft 460 kts 216°
2026-04-27 18:11 63.00622 8.63982 34438 ft 461 kts 216°
2026-04-27 18:12 62.95080 8.56902 34454 ft 461 kts 216°
2026-04-27 18:12 62.89524 8.49836 34445 ft 461 kts 216°
2026-04-27 18:13 62.83966 8.42799 34443 ft 462 kts 216°
2026-04-27 18:13 62.78395 8.35775 34428 ft 462 kts 215°
2026-04-27 18:14 62.72821 8.28780 34423 ft 462 kts 215°
2026-04-27 18:14 62.67241 8.21809 34437 ft 462 kts 215°
2026-04-27 18:15 62.61644 8.14845 34421 ft 463 kts 215°
2026-04-27 18:15 62.56092 8.07968 34427 ft 462 kts 215°
2026-04-27 18:16 62.50511 8.01086 34433 ft 461 kts 215°
2026-04-27 18:16 62.44928 7.94230 34407 ft 461 kts 215°
2026-04-27 18:17 62.39359 7.87423 34414 ft 460 kts 214°
2026-04-27 18:17 62.33800 7.80656 34423 ft 459 kts 214°
2026-04-27 18:18 62.28236 7.73910 34415 ft 459 kts 214°
2026-04-27 18:18 62.22671 7.67192 34409 ft 459 kts 214°
2026-04-27 18:19 62.17101 7.60498 34436 ft 459 kts 214°
2026-04-27 18:19 62.11527 7.53826 34414 ft 459 kts 214°
2026-04-27 18:20 62.06029 7.47286 34410 ft 444 kts 214°
2026-04-27 18:20 62.00666 7.40926 34430 ft 439 kts 214°
2026-04-27 18:21 61.97991 7.37756 34251 ft 442 kts 214°
2026-04-27 18:21 61.95318 7.34596 33926 ft 437 kts 214°
2026-04-27 18:21 61.92669 7.31475 33566 ft 433 kts 214°
2026-04-27 18:21 61.90047 7.28393 33215 ft 429 kts 214°
2026-04-27 18:22 61.87440 7.25335 32834 ft 426 kts 214°
2026-04-27 18:22 61.84856 7.22307 32443 ft 423 kts 214°
2026-04-27 18:22 61.82291 7.19308 32126 ft 419 kts 213°
2026-04-27 18:22 61.79744 7.16335 31751 ft 418 kts 213°
2026-04-27 18:23 61.77206 7.13377 31393 ft 416 kts 213°
2026-04-27 18:23 61.74678 7.10437 31022 ft 414 kts 213°
2026-04-27 18:23 61.72163 7.07518 30680 ft 411 kts 213°
2026-04-27 18:23 61.69693 7.04658 30304 ft 409 kts 213°
2026-04-27 18:24 61.67203 7.01779 29898 ft 406 kts 213°
2026-04-27 18:24 61.64734 6.98931 29532 ft 402 kts 213°
2026-04-27 18:24 61.62291 6.96119 29176 ft 398 kts 213°
2026-04-27 18:24 61.59874 6.93341 28803 ft 394 kts 213°
2026-04-27 18:25 61.57481 6.90595 28452 ft 390 kts 213°
2026-04-27 18:25 61.55107 6.87875 28115 ft 386 kts 213°
2026-04-27 18:25 61.52759 6.85188 27746 ft 384 kts 213°
2026-04-27 18:25 61.50419 6.82516 27382 ft 381 kts 213°
2026-04-27 18:26 61.48128 6.79905 27039 ft 378 kts 213°
2026-04-27 18:26 61.45798 6.77254 26677 ft 375 kts 212°
2026-04-27 18:26 61.43519 6.74666 26353 ft 372 kts 213°
2026-04-27 18:26 61.41253 6.72097 26007 ft 369 kts 213°
2026-04-27 18:27 61.39011 6.69558 25695 ft 366 kts 212°
2026-04-27 18:27 61.36773 6.67027 25344 ft 364 kts 212°
2026-04-27 18:27 61.34550 6.64518 25013 ft 363 kts 212°
2026-04-27 18:27 61.32337 6.62024 24684 ft 361 kts 212°
2026-04-27 18:28 61.30135 6.59546 24367 ft 359 kts 212°
2026-04-27 18:28 61.27933 6.57073 24031 ft 359 kts 212°
2026-04-27 18:28 61.25740 6.54614 23647 ft 357 kts 212°
2026-04-27 18:28 61.23585 6.52201 23291 ft 356 kts 212°
2026-04-27 18:29 61.21420 6.49782 22964 ft 350 kts 212°
2026-04-27 18:29 61.19286 6.47402 22652 ft 348 kts 212°
2026-04-27 18:29 61.17161 6.45034 22307 ft 346 kts 212°
2026-04-27 18:29 61.15054 6.42690 21993 ft 343 kts 212°
2026-04-27 18:30 61.12956 6.40360 21671 ft 340 kts 212°
2026-04-27 18:30 61.10879 6.38057 21362 ft 336 kts 212°
2026-04-27 18:30 61.08828 6.35785 21058 ft 334 kts 212°
2026-04-27 18:30 61.07448 6.34258 20845 ft 332 kts 211°
2026-04-27 18:31 61.04758 6.31284 20437 ft 330 kts 211°
2026-04-27 18:31 61.03389 6.29774 20228 ft 330 kts 211°
2026-04-27 18:31 61.01396 6.27578 19905 ft 329 kts 211°
2026-04-27 18:31 60.99381 6.25362 19604 ft 327 kts 211°
2026-04-27 18:32 60.97326 6.23253 19078 ft 334 kts 208°
2026-04-27 18:32 60.95205 6.21224 18686 ft 336 kts 207°
2026-04-27 18:32 60.92337 6.18530 17406 ft 357 kts 206°
2026-04-27 18:32 60.90771 6.17059 16896 ft 366 kts 206°
2026-04-27 18:33 60.88448 6.14877 16633 ft 375 kts 206°
2026-04-27 18:33 60.85998 6.12563 16281 ft 396 kts 206°
2026-04-27 18:33 60.83488 6.10190 15894 ft 398 kts 206°
2026-04-27 18:33 60.80976 6.07816 15500 ft 395 kts 206°
2026-04-27 18:34 60.78492 6.05471 15130 ft 391 kts 206°
2026-04-27 18:34 60.76030 6.03146 14766 ft 388 kts 206°
2026-04-27 18:34 60.73586 6.00841 14382 ft 385 kts 206°
2026-04-27 18:34 60.71977 5.99324 14129 ft 383 kts 206°
2026-04-27 18:35 60.68757 5.96291 13604 ft 380 kts 206°
2026-04-27 18:35 60.66361 5.94041 13188 ft 378 kts 206°
2026-04-27 18:35 60.63287 5.91158 12675 ft 376 kts 205°
2026-04-27 18:35 60.61600 5.89578 12393 ft 373 kts 205°
2026-04-27 18:36 60.59259 5.87385 11954 ft 368 kts 205°
2026-04-27 18:36 60.56940 5.85221 11528 ft 363 kts 205°
2026-04-27 18:36 60.54665 5.83103 11222 ft 355 kts 205°
2026-04-27 18:36 60.52443 5.81036 10913 ft 348 kts 205°
2026-04-27 18:37 60.50264 5.79012 10612 ft 341 kts 205°
2026-04-27 18:37 60.48130 5.77032 10323 ft 335 kts 205°
2026-04-27 18:37 60.46029 5.75086 9973 ft 329 kts 205°
2026-04-27 18:37 60.43961 5.73172 9672 ft 324 kts 205°
2026-04-27 18:38 60.41925 5.71290 9358 ft 319 kts 205°
2026-04-27 18:38 60.39918 5.69438 9032 ft 315 kts 205°
2026-04-27 18:38 60.37938 5.67614 8724 ft 310 kts 205°
2026-04-27 18:38 60.35983 5.65815 8426 ft 307 kts 205°
2026-04-27 18:39 60.34049 5.64036 8105 ft 304 kts 205°
2026-04-27 18:39 60.32135 5.62279 7801 ft 301 kts 205°
2026-04-27 18:39 60.30244 5.60545 7506 ft 297 kts 205°
2026-04-27 18:39 60.28365 5.58825 7190 ft 296 kts 205°
2026-04-27 18:40 60.26496 5.57117 6866 ft 294 kts 205°
2026-04-27 18:40 60.24639 5.55420 6525 ft 292 kts 205°
2026-04-27 18:40 60.22794 5.53735 6179 ft 290 kts 204°
2026-04-27 18:40 60.20956 5.52060 5852 ft 288 kts 204°
2026-04-27 18:41 60.19134 5.50401 5512 ft 287 kts 204°
2026-04-27 18:41 60.17319 5.48751 5177 ft 285 kts 204°
2026-04-27 18:41 60.15517 5.47116 4825 ft 283 kts 204°
2026-04-27 18:41 60.13724 5.45492 4490 ft 282 kts 204°
2026-04-27 18:42 60.11975 5.43814 4133 ft 276 kts 212°
2026-04-27 18:42 60.11028 5.42151 3919 ft 272 kts 232°
2026-04-27 18:42 60.10128 5.37677 3693 ft 257 kts 264°
2026-04-27 18:42 60.10230 5.34177 3533 ft 245 kts 280°
2026-04-27 18:43 60.10544 5.30920 3368 ft 230 kts 284°
2026-04-27 18:43 60.11293 5.28257 3168 ft 215 kts 322°
2026-04-27 18:43 60.12634 5.27256 3057 ft 197 kts 353°
2026-04-27 18:43 60.13952 5.26870 3001 ft 187 kts 352°
2026-04-27 18:44 60.15194 5.26473 2976 ft 174 kts 351°
2026-04-27 18:44 60.16397 5.26138 2623 ft 177 kts 352°
2026-04-27 18:44 60.17557 5.25790 2371 ft 167 kts 351°
2026-04-27 18:44 60.18681 5.25418 2148 ft 156 kts 351°
2026-04-27 18:45 60.19720 5.25067 1936 ft 146 kts 351°
2026-04-27 18:45 60.20717 5.24730 1739 ft 143 kts 351°
2026-04-27 18:45 60.21625 5.24410 1663 ft 128 kts 349°
2026-04-27 18:45 60.22506 5.24097 1423 ft 129 kts 349°
2026-04-27 18:46 60.23385 5.23799 1201 ft 127 kts 349°
2026-04-27 18:46 60.24247 5.23510 1048 ft 124 kts 350°
2026-04-27 18:46 60.25107 5.23236 867 ft 127 kts 349°
2026-04-27 18:46 60.25987 5.22936 672 ft 128 kts 349°
2026-04-27 18:47 60.26869 5.22651 477 ft 128 kts 349°
2026-04-27 18:47 60.27763 5.22344 297 ft 131 kts 350°
2026-04-27 18:47 60.28645 5.22051 174 ft 123 kts 349°
2026-04-27 18:47 60.29405 5.21792 165 ft 94 kts 351°
2026-04-27 18:48 60.29700 5.21707 169 ft 7 kts 18°
2026-04-27 18:48 60.29723 5.21815 168 ft 9 kts 95°
2026-04-27 18:48 60.29722 5.21821 168 ft 0 kts 96°